Location: Beacon Field Observatory
(38.7700°N, 77.0829°W)
Time: 12:36:34
(UTC-04:00)

ISS - Visible Passes

Search period start: 21 April 2019 00:00
Search period end: 01 May 2019 00:00
Orbit: 408 x 410 km, 51.6° (Epoch: 22 April)

Date Brightness Start Highest point End Pass type
(mag) Time Alt. Az. Time Alt. Az. Time Alt. Az.
26 Apr -1.6 05:41:12 10° S 05:43:46 21° SE 05:46:21 10° E visible
27 Apr -1.0 04:52:08 10° SE 04:53:08 11° SE 04:54:08 10° ESE visible
28 Apr -3.4 05:35:11 10° SW 05:38:26 59° SE 05:41:42 10° ENE visible
29 Apr -2.3 04:46:15 21° S 04:47:39 29° SE 04:50:35 10° ENE visible
30 Apr -1.3 03:57:29 15° ESE 03:57:29 15° ESE 03:59:00 10° E visible
30 Apr -3.3 05:30:13 12° WSW 05:33:13 50° NW 05:36:27 10° NE visible
